Flight Track Log - Related Links

Times and Time Zones

All times are in EDT time to prevent confusion due to time zone crossing. See the FSR411 flight status page for this flight to view local times or setup timezone preferences in your user account.

Time Position Orientation Groundspeed Altitude Reporting Facility
EDT Latitude Longitude Course Direction KTS MPH feet Rate Location/Type
Sun 04:20:27 PM 40.0947 -88.2961 108° East 209 241 41,000  Level Indianapolis Center
Sun 04:21:28 PM 40.0961 -88.2172 89° East 246 283 41,000 -18,571 Level Indianapolis Center
Sun 04:22:12 PM 40.0750 -88.1561 114° Southeast 262 302 8,500 -17,717 Descending Chicago Center
Sun 04:23:14 PM 40.0439 -88.0522 111° Southeast 301 346 9,700 1,872 Climbing Chicago Center
Sun 04:24:17 PM 40.0122 -87.9392 110° East 331 381 12,400 2,688 Climbing Chicago Center
Sun 04:25:00 PM 39.8524 -87.5928 108° East  Level FlightAware Approximate
Sun 04:25:19 PM 39.9753 -87.8083 110° East 380 437 15,300  Level Chicago Center
Sun 04:26:21 PM 39.9406 -87.6253 104° East 438 504 18,600 3,048 Climbing Chicago Center
Sun 04:27:23 PM 39.9139 -87.4644 102° East 455 524 21,600 2,661 Climbing Chicago Center
Sun 04:28:25 PM 39.8636 -87.3064 112° Southeast 476 548 24,100 2,468 Climbing Chicago Center
Sun 04:29:27 PM 39.8153 -87.1464 111° Southeast 479 551 26,700 2,323 Climbing Chicago Center
Sun 04:30:29 PM 39.7639 -86.9869 113° Southeast 480 552 28,900 1,984 Climbing Chicago Center
Sun 04:31:31 PM 39.7125 -86.8236 112° Southeast 489 563 30,800 1,887 Climbing Chicago Center
Sun 04:32:33 PM 39.6500 -86.6281 112° Southeast 494 568 32,800 1,645 Climbing Chicago Center
Sun 04:33:35 PM 39.5958 -86.4611 113° Southeast 504 580 34,200 1,258 Climbing Chicago Center
Sun 04:34:37 PM 39.5417 -86.2939 113° Southeast 514 592 35,400 1,161 Climbing Chicago Center
Sun 04:35:39 PM 39.4769 -86.0897 112° Southeast 520 598 36,600 1,113 Climbing Chicago Center
Sun 04:36:41 PM 39.4203 -85.9175 113° Southeast 525 604 37,700 1,248 Climbing Chicago Center
Sun 04:37:44 PM 39.3650 -85.7483 113° Southeast 519 597 39,200 1,310 Climbing Chicago Center
Sun 04:39:03 PM 39.2914 -85.5244 113° Southeast 490 564 40,800 766 Climbing Indianapolis Center
Sun 04:40:05 PM 39.2383 -85.3647 113° Southeast 487 560 41,000 97 Climbing Indianapolis Center
Sun 04:41:07 PM 39.1828 -85.2006 114° Southeast 499 574 41,000  Level Indianapolis Center
Sun 04:42:09 PM 39.1281 -85.0333 113° Southeast 508 585 41,000  Level Indianapolis Center
Sun 04:43:11 PM 39.0619 -84.8389 114° Southeast 513 590 41,000  Level Indianapolis Center
Sun 04:44:13 PM 39.0072 -84.6661 112° Southeast 516 594 41,000  Level Indianapolis Center
Sun 04:45:15 PM 38.9761 -84.4861 102° East 513 590 41,000  Level Indianapolis Center
Sun 04:46:16 PM 38.9428 -84.3056 103° East 516 594 41,000  Level Indianapolis Center
Sun 04:47:18 PM 38.9086 -84.1258 104° East 516 594 41,000  Level Indianapolis Center
Sun 04:48:20 PM 38.8750 -83.9447 103° East 518 596 41,000  Level Indianapolis Center
Sun 04:49:22 PM 38.8406 -83.7653 104° East 517 595 41,000  Level Indianapolis Center
Sun 04:50:24 PM 38.8003 -83.5583 104° East 512 589 41,000  Level Indianapolis Center
Sun 04:51:26 PM 38.7661 -83.3808 104° East 511 588 41,000  Level Indianapolis Center
Sun 04:52:28 PM 38.7308 -83.2075 105° East 503 579 41,000  Level Indianapolis Center
Sun 04:53:30 PM 38.7000 -83.0478 104° East 500 575 41,000  Level Indianapolis Center
Sun 04:54:32 PM 38.6656 -82.8756 104° East 499 574 41,000  Level Indianapolis Center
Sun 04:55:34 PM 38.6247 -82.6714 104° East 496 571 41,000  Level Indianapolis Center
Sun 04:56:36 PM 38.5883 -82.4989 105° East 499 574 41,000  Level Indianapolis Center
Sun 04:57:38 PM 38.5539 -82.3289 104° East 497 572 41,000  Level Indianapolis Center
Sun 04:58:40 PM 38.5194 -82.1586 104° East 498 573 41,000 -194 Level Indianapolis Center
Sun 04:59:42 PM 38.4833 -81.9911 105° East 494 568 40,600 -726 Descending Indianapolis Center
Sun 05:00:44 PM 38.4419 -81.7908 105° East 492 566 39,500 -968 Descending Indianapolis Center
Sun 05:01:46 PM 38.4067 -81.6258 105° East 490 564 38,600 -919 Descending Indianapolis Center
Sun 05:02:48 PM 38.3722 -81.4622 105° East 486 559 37,600 -1,161 Descending Indianapolis Center
Sun 05:03:50 PM 38.3369 -81.2994 105° East 481 554 36,200 -1,597 Descending Indianapolis Center
Sun 05:04:52 PM 38.3017 -81.1339 105° East 487 560 34,300 -2,585 Descending Indianapolis Center
Sun 05:05:53 PM 38.2581 -80.9347 106° East 487 560 30,900 -2,488 Descending Indianapolis Center
Sun 05:06:55 PM 38.2211 -80.7681 106° East 490 564 29,200 -919 Descending Indianapolis Center
Sun 05:07:57 PM 38.1850 -80.6039 106° East 485 558 29,000 -638 Descending Indianapolis Center
Sun 05:08:29 PM 38.1692 -80.5389 107° East 487 560 28,200 -1,800 Descending Washington Center
Sun 05:09:27 PM 38.1342 -80.3781 105° East 487 560 26,300 -1,881 Descending Washington Center
Sun 05:10:27 PM 38.0967 -80.2147 106° East 481 554 24,500 -1,388 Descending Washington Center
Sun 05:11:28 PM 38.0631 -80.0597 105° East 476 548 23,500 -1,109 Descending Washington Center
Sun 05:12:26 PM 38.0233 -79.8858 106° East 465 535 22,300 -1,059 Descending Washington Center
Sun 05:13:27 PM 37.9850 -79.7308 107° East 465 535 21,400 -639 Descending Washington Center
Sun 05:14:28 PM 37.9144 -79.6033 125° Southeast 445 512 21,000 -202 Descending Washington Center
Sun 05:15:26 PM 37.8433 -79.4786 126° Southeast 445 512 21,000  Level Washington Center
Sun 05:16:27 PM 37.7703 -79.3539 127° Southeast 445 512 21,000  Level Washington Center
Sun 05:17:27 PM 37.7028 -79.2403 127° Southeast 445 512 21,000 -298 Level Washington Center
Sun 05:18:28 PM 37.6314 -79.1189 127° Southeast 445 512 20,400 -1,311 Descending Washington Center
Sun 05:19:26 PM 37.5639 -79.0003 126° Southeast 434 499 18,400 -2,118 Descending Washington Center
Sun 05:20:27 PM 37.5000 -78.8928 127° Southeast 412 474 16,200 -2,508 Descending Washington Center
Sun 05:21:28 PM 37.4383 -78.7828 125° Southeast 392 451 13,300 -2,777 Descending Washington Center
Sun 05:22:28 PM 37.3744 -78.6731 126° Southeast 362 417 10,600 -1,966 Descending Washington Center
Sun 05:23:27 PM 37.3225 -78.5822 126° Southeast 340 391 9,400 -1,500 Descending Washington Center
Sun 05:24:28 PM 37.2725 -78.4967 126° Southeast 320 368 7,600 -1,210 Descending Washington Center
Sun 05:25:26 PM 37.2264 -78.4194 127° Southeast 298 343 7,000 -303 Descending Washington Center
Sun 05:26:27 PM 37.1800 -78.3447 128° Southeast 298 343 7,000  Level Washington Center
Sun 05:27:28 PM 37.1486 -78.2628 116° Southeast 283 326 7,000 -850 Level Washington Center
Sun 05:28:27 PM 37.1756 -78.1750 69° East 246 283 5,300 -1,700 Descending Washington Center
Sun 05:29:28 PM 37.2067 -78.0847 67° East 258 297 3,600 -1,160 Descending Washington Center
Sun 05:30:26 PM 37.2397 -77.9997 64° Northeast 264 304 3,000 -303 Descending Washington Center
Sun 05:31:27 PM 37.2686 -77.9119 68° East 264 304 3,000  Level Washington Center
Sun 05:32:26 PM 37.3014 -77.8242 65° Northeast 269 310 3,000  Level Washington Center
Sun 05:33:27 PM 37.3303 -77.7389 67° East 269 310 3,000 -384 Level Washington Center
Sun 05:35:49 PM 37.3333 -77.5500 89° East 221 254 1,700 -549 Descending Potomac TRACON

Login

Don't have an account? Register now (free) for customized features, flight alerts, and more!